Terminal Aerodrome Forecast
Issued by NWS Wilmington, OH

Current Version | Previous Version | Graphics & Text | Print | Product List | Glossary On
Versions: 1 2 3 4 5 6 7 8 9 10 11 12 13 14 15 16 17 18 19 20 21 22 23 24 25 26
000
FTUS41 KILN 240500
TAFCVG
TAF
KCVG 240537Z 2406/2512 03010KT P6SM SCT012 OVC025
      TEMPO 2406/2408 OVC012
     FM240800 02009KT P6SM OVC035
     FM241400 02010KT P6SM BKN040
     FM242300 04003KT P6SM SKC=

USA.gov is the U.S. government's official web portal to all federal, state and local government web resources and services.